x

Walney Island (03214) Weather Station

7:00 - Wed 4th Mar 2015 All times are GMT.

  • Wind
    21mph, 32mph gusts
  • Air Temp 41°f
  • Sea Pressure 1022mb
  • Walney Island
  • Walney Island

More Historic Weather Station data

Upgrade to MSW Pro to gain access to the past 30 days of data for over 8000 Wavebouys and Weather Stations around the globe.

Join Pro

Comparision Forecast

View Surf forecast
   
mer. 03/04 7:00 21 32 mph 1022mb 41f
6:00 23 33 mph 1021mb 41f
5:00 21 33 mph 1020mb 41f
4:00 26 37 mph 1019mb 41f
3:00 21 36 mph 1018mb 41f
mar. 03/03 8:00 26 38 mph 1012mb 41f
7:00 25 40 mph 1012mb 41f
6:00 21 40 mph 1011mb 40f
5:00 22 34 mph 1011mb 42f
4:00 24 34 mph 1011mb 42f
3:00 21 33 mph 1011mb 44f
2:00 21 34 mph 1010mb 44f
1:00 24 33 mph 1010mb 41f
12:00 18 29 mph 1010mb 43f
11:00 19 33 mph 1009mb 42f
10:00 19 32 mph 1009mb 41f
9:00 18 34 mph 1008mb 40f
8:00 24 34 mph 1007mb 39f
7:00 21 33 mph 1007mb 39f
6:00 17 31 mph 1006mb 39f
5:00 16 29 mph 1006mb 40f
4:00 17 30 mph 1006mb 39f
3:00 18 32 mph 1007mb 40f
2:00 19 33 mph 1007mb 40f
1:00 19 36 mph 1007mb 40f
12:00 22 38 mph 1008mb 40f
lun. 03/02 11:00 23 34 mph 1007mb 40f
10:00 21 34 mph 1007mb 40f
9:00 21 33 mph 1007mb 39f
8:00 22 40 mph 1007mb 38f
7:00 23 36 mph 1006mb 40f
6:00 24 36 mph 1006mb 40f
5:00 24 39 mph 1006mb 41f
4:00 23 40 mph 1005mb 41f
3:00 26 40 mph 1005mb 42f
2:00 30 40 mph 1004mb 42f
1:00 28 45 mph 1003mb 42f
12:00 28 43 mph 1002mb 42f
11:00 30 39 mph 1000mb 40f
10:00 29 47 mph 998mb 36f
9:00 32 46 mph 997mb 38f
8:00 31 40 mph 996mb 38f
7:00 26 46 mph 996mb 37f
6:00 25 43 mph 995mb 39f
5:00 16 30 mph 995mb 39f
4:00 15 29 mph 995mb 41f
3:00 18 32 mph 996mb 40f
2:00 26 34 mph 996mb 41f
1:00 24 34 mph 996mb 41f
12:00 19 31 mph 995mb 41f
dim. 03/01 11:00 23 36 mph 995mb 41f
10:00 23 34 mph 994mb 41f
8:00 23 38 mph 993mb 41f
7:00 26 39 mph 992mb 41f
6:00 17
mph
991mb 41f
5:00 9
mph
991mb 37f
4:00 5
mph
990mb 35f
3:00 9
mph
991mb 36f
2:00 19 32 mph 992mb 41f
1:00 21 32 mph 993mb 43f
12:00 21 38 mph 993mb 44f
11:00 22 36 mph 994mb 45f
10:00 22 40 mph 993mb 44f
9:00 26 40 mph 993mb 43f
8:00 29 46 mph 992mb 43f
7:00 31 44 mph 991mb 43f
6:00 32 44 mph 991mb 43f
5:00 29 43 mph 990mb 43f
4:00 28 44 mph 989mb 44f
3:00 29 41 mph 989mb 44f
2:00 28 46 mph 989mb 44f
1:00 31 46 mph 989mb 45f
12:00 32 47 mph 987mb 46f
sam. 02/28 11:00 26 40 mph 987mb 46f
10:00 24 36 mph 987mb 47f
9:00 23 37 mph 987mb 47f
8:00 22 33 mph 987mb 47f
7:00 23 34 mph 988mb 45f
6:00 18 31 mph 989mb 45f
5:00 17
mph
992mb 45f
4:00 17
mph
994mb 46f
3:00 15
mph
996mb 46f
2:00 11
mph
998mb 46f
1:00 11
mph
1000mb 46f
12:00 11
mph
1001mb 45f
11:00 10
mph
1002mb 45f
10:00 11
mph
1002mb 45f
9:00 10
mph
1003mb 44f
8:00 10
mph
1004mb 44f